Flag for Poland Weather past 2 weeks in Gdynia, Poland

Now
39 °F

Light rain. Partly sunny.


Feels Like: 29 °F
Forecast: 39 / 44 °F
Wind: 23 mph from West

Location: Gdansk-Rebiechowo

Current Time: Mar 30, 2015 at 5:16:59 PM

Latest Report: Mar 30, 2015 at 4:30 PM


Visibility: 5 mi

Pressure: 29.03 "Hg

Humidity: 93%

Dew point: 37 °F

Location of GdyniaLocation

Historic Weather in Gdynia — Graph

°F

Gdynia temperature yesterday

Maximum temperature yesterday: 46 °F (at 11:00 PM)
Minimum temperature yesterday: 34 °F (at 12:00 AM)
Average temperature yesterday: 41 °F

Past Weeks' High & Low Weather Summary

 TemperatureHumidityPressure
High55 °F (Mar 17, 1:30 PM)100% (Mar 21, 5:30 PM)30.72 "Hg (Mar 21, 5:30 PM)
Low27 °F (Mar 19, 4:30 AM)23% (Mar 23, 12:30 PM)28.82 "Hg (Mar 30, 7:30 AM)
Average40 °F72%30.07 "Hg
* Reported Mar 15 3:00 PM — Mar 30 4:00 PM, Gdynia, Weather by CustomWeather, © 2015

Note: Actual official high and low records may vary slightly from our data, if they occured in-between our weather recording intervals... More about our weather records

Advertising

Gdynia weather history for previous 24 hours

 ConditionsComfort  
Time TempWeatherWind HumidityBarometerVisibility
4:00 PM
Mon, Mar 30
41 °FLight rain. Partly sunny.23 mph87%29.00 "HgN/A
3:30 PM41 °FLight rain. Partly sunny.22 mph87%29.00 "HgN/A
3:00 PM41 °FLight rain. Partly sunny.21 mph87%28.97 "HgN/A
2:30 PM41 °FLight rain. Partly sunny.22 mph87%28.94 "HgN/A
2:00 PM41 °FLight rain. Partly sunny.20 mph87%28.94 "Hg5 mi
1:30 PM39 °FSprinkles. Partly sunny.18 mph93%28.91 "Hg5 mi
1:00 PM41 °FSprinkles. Partly sunny.22 mph87%28.91 "HgN/A
12:30 PM39 °FSprinkles. Partly sunny.20 mph93%28.88 "HgN/A
12:00 PM39 °FSprinkles. Partly sunny.21 mph93%28.88 "HgN/A
11:30 AM39 °FSprinkles. Partly sunny.22 mph93%28.85 "HgN/A
11:00 AM37 °FSprinkles. Partly sunny.20 mph93%28.85 "HgN/A
10:30 AM37 °FSprinkles. Partly sunny.20 mph93%28.85 "Hg4 mi
10:00 AM39 °FSprinkles. Partly sunny.16 mph87%28.85 "HgN/A
9:30 AM39 °FSprinkles. Partly sunny.17 mph87%28.85 "HgN/A
9:00 AM41 °FPartly sunny.20 mph81%28.85 "HgN/A
8:30 AM41 °FPartly sunny.17 mph87%28.85 "HgN/A
8:00 AM43 °FPartly sunny.15 mph87%28.85 "HgN/A
7:30 AM45 °FBroken clouds.13 mph87%28.82 "HgN/A
7:00 AM46 °FPassing clouds.9 mph93%28.85 "HgN/A
6:30 AM46 °FLight rain. Passing clouds.8 mph93%28.85 "Hg4 mi
6:00 AM45 °FRain. Passing clouds.7 mph100%28.85 "Hg4 mi
5:30 AM45 °FLight rain. Fog.9 mph100%28.88 "Hg3 mi
5:00 AM45 °FLight rain. Fog.9 mph100%28.91 "Hg3 mi
4:30 AM45 °FLight rain. Fog.9 mph100%28.94 "Hg3 mi
4:00 AM45 °FLight rain. Fog.9 mph100%28.94 "Hg3 mi
3:30 AM45 °FLight rain. Passing clouds.8 mph100%28.97 "Hg4 mi
3:00 AM45 °FPassing clouds.8 mph100%29.00 "Hg5 mi
2:30 AM45 °FPartly cloudy.7 mph100%29.06 "Hg5 mi
2:00 AM45 °FPartly cloudy.6 mph100%29.06 "Hg5 mi
1:30 AM46 °FLight rain. Passing clouds.8 mph93%29.09 "Hg5 mi
1:00 AM45 °FLight rain. Partly cloudy.6 mph100%29.12 "Hg5 mi
12:30 AM46 °FLight rain. Passing clouds.6 mph93%29.15 "Hg4 mi
12:00 AM46 °FLight rain. Passing clouds.6 mph93%29.18 "Hg4 mi
11:30 PM
Sun, Mar 29
46 °FLight rain. Fog.6 mph93%29.21 "Hg3 mi
11:00 PM46 °FLight rain. Fog.6 mph93%29.21 "Hg3 mi
10:30 PM45 °FLight rain. Fog.6 mph100%29.24 "Hg3 mi
10:00 PM45 °FLight rain. Partly cloudy.6 mph100%29.27 "Hg5 mi
9:30 PM45 °FLight rain. Passing clouds.6 mph100%29.27 "Hg5 mi
9:00 PM45 °FLight rain. Fog.6 mph100%29.30 "Hg3 mi
8:30 PM45 °FLight rain. Passing clouds.6 mph100%29.33 "Hg4 mi
8:00 PM45 °FLight rain. Fog.7 mph100%29.33 "Hg3 mi
7:30 PM45 °FFog.8 mph100%29.33 "Hg2 mi
7:00 PM45 °FLight rain. Fog.8 mph100%29.36 "Hg2 mi
6:30 PM45 °FFog.8 mph93%29.36 "Hg2 mi
6:00 PM45 °FFog.8 mph93%29.36 "Hg3 mi
5:30 PM43 °FLight rain. Fog.7 mph100%29.39 "Hg2 mi
5:00 PM43 °FSprinkles. Fog.9 mph100%29.39 "Hg2 mi
Weather by CustomWeather, © 2015

See weather overviewHow to use our weather pages